Showing default

HULIANWANG DIGUI-161, 68135

Orbit data source: Space-Track

HULIANWANG DIGUI-161, 68135 is a payload satellite owned by Zhongguo Xingwang (CN) in LEO that was launched on Thu, 12 Mar 2026 UTC via a CHANG ZHENG 8A launch vehicle from the Wenchang Satellite Launch Center (WSC). Payload-class satellites include a variety of spacecraft equipped with specific instruments for various scientific and technological missions. These include communications satellites like Starlink; space stations such as the ISS; scientific satellites like the Hubble; Earth observation satellites from companies like Planet Labs, Umbra, and HawkEye 360; GPS; miniature CubeSats for education and research; and military/defense satellites.

Loading next visibility...
Identifier
68135, 2026-047G
Orbit
LEO
Country
Flag of CNCN / PRC
Related business
Manufacturer
CAST?
Mission
Operational spacecraft
Bus & Motor
XINGWANG C, Unknown motor
Mass
~700 kg wet, ~700 kg dry
Launch date (UTC)
2026-03-12 (3 months ago)
Launch vehicle
CHANG ZHENG 8A
Launch site
Wenchang Satellite Launch Center (WSC)
Object type
Payload
Rocket body
Debris
Shape & HBR
Unknown shape, 2.4 m
Radar Cross Section
Large (>1 m²)

Expand to show TLE details & history
Last TLE update: 12 hours ago

TLE from 12 hours ago
0 HULIANWANG DIGUI-161
1 68135U 26047G   26171.34498873 -.00000092  00000-0  68525-4 0  9997
2 68135  50.0109  44.7508 0000636 102.8982 257.1961 13.29333054 13494
Epoch: 2026-06-20T08:16Z
TLE epoch observation values (Epoch: 2026-06-20T08:16:47.026Z)
Latitude
-0.00003°
Longitude
11.99388°
Altitude
1,149.893 km
Speed
7.279 km/s
True Right ascension
02h 59m 00s
True Declination
0° 00' 00"
Sunlit
Object was in daylight at epoch
Visualization orbit readout
Latitude
Unknown
Longitude
Unknown
Altitude
Unknown
Speed
Unknown
Apparent Right ascension
Unknown
Apparent Declination
Unknown
Sunlit
N/A
Visualization observer readout
Local Sidereal Time
07:22:34
Azimuth
Unknown
Elevation
Unknown
Doppler factor
Unknown
Orbital elements
Apogee altitude
1,150.462 km
Perigee altitude
1,149.505 km
Semi-major axis
7,528.121 km
Eccentricity
0.00006
Inclination
50.0109°
RAAN
44.7508°
Arg. of periapsis
102.8982°
True anomaly
257.18899°
Mean anomaly
257.1961°
Eccentric anomaly
257.19255°
Mean motion
3.32287 °/min
Orbital period
108.34 mins
BSTAR
0.000068525
Loading maneuver chart data...
Computing Atmospheric mass density...
Loading historical data...
Loading historical data...
Loading historical data...
Loading historical data...
Loading historical data...
Loading historical data...
Loading historical data...

Documentation

Showing up to 5 results
|